This is the latest recevied weather packets stored in our database for station/object I1SXT-13. If no packets are shown the sender has not sent any weather packets the latest 10 day(s).
| Time | Temp. | Humidity | Pressure | Rain* | Wind** | Luminosity | Snow |
|---|---|---|---|---|---|---|---|
| 1777652664 | 21.11° C | 36% | 1024.3 hPa | 0 mm | - | - | - |
| 1777652368 | 21.67° C | 35% | 1024.3 hPa | 0 mm | - | - | - |
| 1777652063 | 21.67° C | 38% | 1024.4 hPa | 0 mm | - | - | - |
| 1777651165 | 22.22° C | 37% | 1024.1 hPa | 0 mm | - | - | - |
| 1777650564 | 22.22° C | 35% | 1024.1 hPa | 0 mm | - | - | - |
| 1777650267 | 22.22° C | 37% | 1023.9 hPa | 0 mm | - | - | - |
| 1777649970 | 22.78° C | 37% | 1024.3 hPa | 0 mm | - | - | - |
| 1777649064 | 22.22° C | 38% | 1024.1 hPa | 0 mm | - | - | - |
| 1777648767 | 22.22° C | 35% | 1024.1 hPa | 0 mm | - | - | - |
| 1777648166 | 22.78° C | 38% | 1024.4 hPa | 0 mm | - | - | - |
| 1777647869 | 23.33° C | 37% | 1023.7 hPa | 0 mm | - | - | - |
| 1777647565 | 23.33° C | 35% | 1024.2 hPa | 0 mm | - | - | - |
| 1777647268 | 23.33° C | 35% | 1024.6 hPa | 0 mm | - | - | - |
| 1777646964 | 23.89° C | 37% | 1023.8 hPa | 0 mm | - | - | - |
| 1777646667 | 23.89° C | 36% | 1024.1 hPa | 0 mm | - | - | - |
| 1777646370 | 23.89° C | 36% | 1023.9 hPa | 0 mm | - | - | - |
| 1777645768 | 24.44° C | 36% | 1024.5 hPa | 0 mm | - | - | - |
| 1777645464 | 24.44° C | 35% | 1024.4 hPa | 0 mm | - | - | - |
| 1777644566 | 24.44° C | 33% | 1024.7 hPa | 0 mm | - | - | - |
| 1777643965 | 24.44° C | 34% | 1025.3 hPa | 0 mm | - | - | - |
| 1777643363 | 24.44° C | 33% | 1025.6 hPa | 0 mm | - | - | - |
| 1777642769 | 24.44° C | 35% | 1025.7 hPa | 0 mm | - | - | - |
| 1777642465 | 23.89° C | 36% | 1025.6 hPa | 0 mm | - | - | - |
| 1777642168 | 23.89° C | 33% | 1025.2 hPa | 0 mm | - | - | - |
| 1777641864 | 24.44° C | 34% | 1025.5 hPa | 0 mm | - | - | - |
* Rain since midnight (hover to see other rain measurements)
** Current wind speed in m/s (hover to see current wind gust speed)